"Sample Date","Sample Time","Sensor Name","Sample Value","Units","Flow Rate","Sample Interval","Sample Volume","Laser Status","Number Channels","Micron Size 0","Counts/Channel 0","Micron Size 1","Counts/Channel 1","Micron Size 2","Counts/Channel 2","Micron Size 3","Counts/Channel 3","Micron Size 4","Counts/Channel 4","Micron Size 5","Counts/Channel 5","Micron Size 6","Counts/Channel 6","Micron Size 7","Counts/Channel 7","Micron Size 8","Counts/Channel 8","Micron Size 9","Counts/Channel 9","Micron Size 10","Counts/Channel 10","Micron Size 11","Counts/Channel 11","Micron Size 12","Counts/Channel 12","Micron Size 13","Counts/Channel 13","Micron Size 14","Counts/Channel 14","Micron Size 15","Counts/Channel 15","Micron Size 16","Counts/Channel 16","Micron Size 17","Counts/Channel 17","Micron Size 18","Counts/Channel 18","Micron Size 19","Counts/Channel 19","Micron Size 20","Counts/Channel 20","Micron Size 21","Counts/Channel 21","Micron Size 22","Counts/Channel 22","Micron Size 23","Counts/Channel 23","Micron Size 24","Counts/Channel 24","Micron Size 25","Counts/Channel 25","Micron Size 26","Counts/Channel 26","Micron Size 27","Counts/Channel 27","Micron Size 28","Counts/Channel 28","Micron Size 29","Counts/Channel 29","Micron Size 30","Counts/Channel 30","Micron Size 31","Counts/Channel 31"
"07/04/06","11:00:01","AMMA06",63966.000,"cc",28303.910,6.00,2830.391,1,6,0.100,34414.000,0.200,25231.000,0.300,2942.000,0.500,826.000,1.000,553.000,5.000,0
"07/04/06","11:00:07","AMMA06",64306.000,"cc",28298.656,6.00,2829.866,1,6,0.100,34686.000,0.200,25200.000,0.300,3004.000,0.500,860.000,1.000,555.000,5.000,1.000
"07/04/06","11:00:13","AMMA06",64684.000,"cc",28326.943,6.00,2832.695,1,6,0.100,35205.000,0.200,25268.000,0.300,2823.000,0.500,824.000,1.000,564.000,5.000,0
"07/04/06","11:00:19","AMMA06",65205.000,"cc",28356.287,6.00,2835.629,1,6,0.100,35659.000,0.200,25268.000,0.300,2902.000,0.500,820.000,1.000,556.000,5.000,0
"07/04/06","11:00:25","AMMA06",63654.000,"cc",28341.406,6.00,2834.141,1,6,0.100,34419.000,0.200,24923.000,0.300,2866.000,0.500,876.000,1.000,569.000,5.000,1.000
"07/04/06","11:00:31","AMMA06",63623.000,"cc",28340.850,6.00,2834.085,1,6,0.100,34403.000,0.200,25048.000,0.300,2811.000,0.500,827.000,1.000,534.000,5.000,0
"07/04/06","11:00:37","AMMA06",63789.000,"cc",28334.697,6.00,2833.470,1,6,0.100,34771.000,0.200,24931.000,0.300,2817.000,0.500,756.000,1.000,513.000,5.000,1.000
"07/04/06","11:00:43","AMMA06",63949.000,"cc",28285.260,6.00,2828.526,1,6,0.100,34590.000,0.200,25084.000,0.300,2842.000,0.500,846.000,1.000,587.000,5.000,0
"07/04/06","11:00:49","AMMA06",63948.000,"cc",28291.522,6.00,2829.152,1,6,0.100,34623.000,0.200,25066.000,0.300,2864.000,0.500,818.000,1.000,577.000,5.000,0
"07/04/06","11:00:55","AMMA06",63851.000,"cc",28292.975,6.00,2829.298,1,6,0.100,34727.000,0.200,24914.000,0.300,2792.000,0.500,837.000,1.000,581.000,5.000,0
"07/04/06","11:01:01","AMMA06",63719.000,"cc",28251.768,6.00,2825.177,1,6,0.100,34493.000,0.200,24978.000,0.300,2820.000,0.500,850.000,1.000,576.000,5.000,2.000
"07/04/06","11:01:07","AMMA06",63905.000,"cc",28310.711,6.00,2831.071,1,6,0.100,34602.000,0.200,25053.000,0.300,2865.000,0.500,838.000,1.000,546.000,5.000,1.000
"07/04/06","11:01:13","AMMA06",64468.000,"cc",28367.627,6.00,2836.763,1,6,0.100,35244.000,0.200,24966.000,0.300,2893.000,0.500,845.000,1.000,520.000,5.000,0
"07/04/06","11:01:19","AMMA06",64524.000,"cc",28347.889,6.00,2834.789,1,6,0.100,35099.000,0.200,25107.000,0.300,2960.000,0.500,808.000,1.000,549.000,5.000,1.000
"07/04/06","11:01:25","AMMA06",64395.000,"cc",28347.801,6.00,2834.780,1,6,0.100,35152.000,0.200,24917.000,0.300,2939.000,0.500,862.000,1.000,524.000,5.000,1.000
"07/04/06","11:01:31","AMMA06",64031.000,"cc",28261.773,6.00,2826.178,1,6,0.100,34690.000,0.200,25054.000,0.300,2889.000,0.500,847.000,1.000,551.000,5.000,0
"07/04/06","11:01:37","AMMA06",64708.000,"cc",28345.092,6.00,2834.509,1,6,0.100,35092.000,0.200,25338.000,0.300,2986.000,0.500,783.000,1.000,509.000,5.000,0
"07/04/06","11:01:43","AMMA06",64019.000,"cc",28309.344,6.00,2830.935,1,6,0.100,34958.000,0.200,24915.000,0.300,2851.000,0.500,776.000,1.000,516.000,5.000,3.000
"07/04/06","11:01:49","AMMA06",63683.000,"cc",28327.254,6.00,2832.726,1,6,0.100,34356.000,0.200,25185.000,0.300,2828.000,0.500,792.000,1.000,522.000,5.000,0
"07/04/06","11:01:55","AMMA06",63786.000,"cc",28307.734,6.00,2830.774,1,6,0.100,34709.000,0.200,24889.000,0.300,2798.000,0.500,862.000,1.000,528.000,5.000,0
"07/04/06","11:02:01","AMMA06",63775.000,"cc",28322.158,6.00,2832.216,1,6,0.100,34735.000,0.200,24906.000,0.300,2724.000,0.500,835.000,1.000,574.000,5.000,1.000
"07/04/06","11:02:07","AMMA06",63793.000,"cc",28317.582,6.00,2831.758,1,6,0.100,34473.000,0.200,25113.000,0.300,2824.000,0.500,841.000,1.000,540.000,5.000,2.000
"07/04/06","11:02:13","AMMA06",64349.000,"cc",28320.184,6.00,2832.019,1,6,0.100,34828.000,0.200,25329.000,0.300,2800.000,0.500,862.000,1.000,530.000,5.000,0
"07/04/06","11:02:19","AMMA06",64340.000,"cc",28299.947,6.00,2829.995,1,6,0.100,34773.000,0.200,25285.000,0.300,2878.000,0.500,858.000,1.000,545.000,5.000,1.000
"07/04/06","11:02:25","AMMA06",64366.000,"cc",28303.461,6.00,2830.346,1,6,0.100,34907.000,0.200,25234.000,0.300,2810.000,0.500,868.000,1.000,547.000,5.000,0
"07/04/06","11:02:31","AMMA06",64374.000,"cc",28312.137,6.00,2831.214,1,6,0.100,34710.000,0.200,25476.000,0.300,2796.000,0.500,833.000,1.000,559.000,5.000,0
"07/04/06","11:02:37","AMMA06",63796.000,"cc",28313.436,6.00,2831.344,1,6,0.100,34465.000,0.200,25047.000,0.300,2960.000,0.500,796.000,1.000,528.000,5.000,0
"07/04/06","11:02:43","AMMA06",63979.000,"cc",28342.611,6.00,2834.261,1,6,0.100,34325.000,0.200,25443.000,0.300,2857.000,0.500,809.000,1.000,545.000,5.000,0
"07/04/06","11:02:49","AMMA06",64424.000,"cc",28299.713,6.00,2829.971,1,6,0.100,34811.000,0.200,25293.000,0.300,2953.000,0.500,844.000,1.000,522.000,5.000,1.000
"07/04/06","11:02:55","AMMA06",64079.000,"cc",28343.301,6.00,2834.330,1,6,0.100,34742.000,0.200,25143.000,0.300,2872.000,0.500,771.000,1.000,551.000,5.000,0
"07/04/06","11:03:01","AMMA06",64059.000,"cc",28347.084,6.00,2834.709,1,6,0.100,34632.000,0.200,25237.000,0.300,2882.000,0.500,816.000,1.000,492.000,5.000,0
"07/04/06","11:03:07","AMMA06",63619.000,"cc",28296.102,6.00,2829.610,1,6,0.100,34278.000,0.200,25173.000,0.300,2892.000,0.500,753.000,1.000,523.000,5.000,0
"07/04/06","11:03:13","AMMA06",64388.000,"cc",28314.643,6.00,2831.464,1,6,0.100,34629.000,0.200,25474.000,0.300,2910.000,0.500,836.000,1.000,539.000,5.000,0
"07/04/06","11:03:19","AMMA06",64575.000,"cc",28287.811,6.00,2828.781,1,6,0.100,34795.000,0.200,25365.000,0.300,2931.000,0.500,903.000,1.000,580.000,5.000,1.000
"07/04/06","11:03:25","AMMA06",64630.000,"cc",28277.389,6.00,2827.739,1,6,0.100,34766.000,0.200,25573.000,0.300,2866.000,0.500,882.000,1.000,543.000,5.000,0
"07/04/06","11:03:31","AMMA06",64885.000,"cc",28373.551,6.00,2837.355,1,6,0.100,34785.000,0.200,25796.000,0.300,2899.000,0.500,811.000,1.000,594.000,5.000,0
"07/04/06","11:03:37","AMMA06",64735.000,"cc",28333.150,6.00,2833.315,1,6,0.100,34732.000,0.200,25553.000,0.300,2972.000,0.500,888.000,1.000,589.000,5.000,1.000
"07/04/06","11:03:43","AMMA06",64226.000,"cc",28281.805,6.00,2828.181,1,6,0.100,34511.000,0.200,25323.000,0.300,2955.000,0.500,849.000,1.000,588.000,5.000,0
"07/04/06","11:03:49","AMMA06",64569.000,"cc",28296.315,6.00,2829.632,1,6,0.100,34717.000,0.200,25570.000,0.300,2874.000,0.500,846.000,1.000,562.000,5.000,0
"07/04/06","11:03:55","AMMA06",64704.000,"cc",28333.971,6.00,2833.397,1,6,0.100,34624.000,0.200,25733.000,0.300,2961.000,0.500,829.000,1.000,557.000,5.000,0
"07/04/06","11:04:01","AMMA06",64673.000,"cc",28354.525,6.00,2835.453,1,6,0.100,34541.000,0.200,25760.000,0.300,2946.000,0.500,835.000,1.000,591.000,5.000,0
"07/04/06","11:04:07","AMMA06",64207.000,"cc",28290.438,6.00,2829.044,1,6,0.100,34344.000,0.200,25531.000,0.300,2941.000,0.500,824.000,1.000,567.000,5.000,0
"07/04/06","11:04:13","AMMA06",64783.000,"cc",28291.387,6.00,2829.139,1,6,0.100,34490.000,0.200,25924.000,0.300,2940.000,0.500,873.000,1.000,556.000,5.000,0
"07/04/06","11:04:19","AMMA06",65316.000,"cc",28351.934,6.00,2835.194,1,6,0.100,34824.000,0.200,26096.000,0.300,2937.000,0.500,873.000,1.000,586.000,5.000,0
"07/04/06","11:04:25","AMMA06",64365.000,"cc",28383.676,6.00,2838.368,1,6,0.100,34631.000,0.200,25388.000,0.300,3006.000,0.500,845.000,1.000,494.000,5.000,1.000
"07/04/06","11:04:31","AMMA06",64781.000,"cc",28331.182,6.00,2833.118,1,6,0.100,34733.000,0.200,25671.000,0.300,2936.000,0.500,849.000,1.000,592.000,5.000,0
"07/04/06","11:04:37","AMMA06",64092.000,"cc",28345.215,6.00,2834.522,1,6,0.100,34301.000,0.200,25371.000,0.300,3019.000,0.500,856.000,1.000,545.000,5.000,0
"07/04/06","11:04:43","AMMA06",64163.000,"cc",28283.502,6.00,2828.350,1,6,0.100,34311.000,0.200,25382.000,0.300,3011.000,0.500,905.000,1.000,554.000,5.000,0
"07/04/06","11:04:49","AMMA06",64485.000,"cc",28364.365,6.00,2836.437,1,6,0.100,34510.000,0.200,25572.000,0.300,3032.000,0.500,835.000,1.000,536.000,5.000,0
"07/04/06","11:04:55","AMMA06",64176.000,"cc",28282.068,6.00,2828.207,1,6,0.100,34183.000,0.200,25541.000,0.300,3013.000,0.500,839.000,1.000,600.000,5.000,0
"07/04/06","11:05:01","AMMA06",64613.000,"cc",28309.908,6.00,2830.991,1,6,0.100,34500.000,0.200,25637.000,0.300,3026.000,0.500,880.000,1.000,570.000,5.000,0
"07/04/06","11:05:07","AMMA06",64466.000,"cc",28313.221,6.00,2831.322,1,6,0.100,34092.000,0.200,25918.000,0.300,2985.000,0.500,890.000,1.000,579.000,5.000,2.000
"07/04/06","11:05:13","AMMA06",64939.000,"cc",28314.131,6.00,2831.413,1,6,0.100,34429.000,0.200,26062.000,0.300,3047.000,0.500,830.000,1.000,571.000,5.000,0
"07/04/06","11:05:19","AMMA06",64281.000,"cc",28356.063,6.00,2835.606,1,6,0.100,34238.000,0.200,25643.000,0.300,3045.000,0.500,796.000,1.000,559.000,5.000,0
"07/04/06","11:05:25","AMMA06",64589.000,"cc",28270.025,6.00,2827.003,1,6,0.100,34311.000,0.200,25901.000,0.300,3041.000,0.500,840.000,1.000,496.000,5.000,0
"07/04/06","11:05:31","AMMA06",64355.000,"cc",28306.732,6.00,2830.673,1,6,0.100,34030.000,0.200,25857.000,0.300,3082.000,0.500,809.000,1.000,576.000,5.000,1.000
"07/04/06","11:05:37","AMMA06",64031.000,"cc",28306.902,6.00,2830.690,1,6,0.100,33922.000,0.200,25645.000,0.300,3073.000,0.500,845.000,1.000,546.000,5.000,0
"07/04/06","11:05:43","AMMA06",63935.000,"cc",28307.969,6.00,2830.797,1,6,0.100,33998.000,0.200,25552.000,0.300,3040.000,0.500,777.000,1.000,568.000,5.000,0
"07/04/06","11:05:49","AMMA06",63926.000,"cc",28336.648,6.00,2833.665,1,6,0.100,34012.000,0.200,25578.000,0.300,2975.000,0.500,850.000,1.000,510.000,5.000,1.000
"07/04/06","11:05:55","AMMA06",63609.000,"cc",28311.178,6.00,2831.118,1,6,0.100,33889.000,0.200,25288.000,0.300,3034.000,0.500,853.000,1.000,545.000,5.000,0
"07/04/06","11:06:01","AMMA06",62997.000,"cc",28362.986,6.00,2836.299,1,6,0.100,33641.000,0.200,25106.000,0.300,2890.000,0.500,822.000,1.000,538.000,5.000,0
"07/04/06","11:06:07","AMMA06",62638.000,"cc",28305.291,6.00,2830.529,1,6,0.100,33550.000,0.200,24750.000,0.300,2930.000,0.500,871.000,1.000,536.000,5.000,1.000
"07/04/06","11:06:13","AMMA06",62829.000,"cc",28299.822,6.00,2829.982,1,6,0.100,33388.000,0.200,25003.000,0.300,3039.000,0.500,838.000,1.000,561.000,5.000,0
"07/04/06","11:06:19","AMMA06",63345.000,"cc",28344.606,6.00,2834.461,1,6,0.100,33854.000,0.200,25183.000,0.300,2916.000,0.500,822.000,1.000,570.000,5.000,0
"07/04/06","11:06:25","AMMA06",63096.000,"cc",28285.309,6.00,2828.531,1,6,0.100,33510.000,0.200,25309.000,0.300,2956.000,0.500,818.000,1.000,503.000,5.000,0
"07/04/06","11:06:31","AMMA06",63272.000,"cc",28322.525,6.00,2832.253,1,6,0.100,33795.000,0.200,25101.000,0.300,2996.000,0.500,886.000,1.000,494.000,5.000,0
"07/04/06","11:06:37","AMMA06",62914.000,"cc",28285.553,6.00,2828.555,1,6,0.100,33537.000,0.200,25021.000,0.300,2977.000,0.500,856.000,1.000,523.000,5.000,0
"07/04/06","11:06:43","AMMA06",62790.000,"cc",28315.193,6.00,2831.520,1,6,0.100,33578.000,0.200,24889.000,0.300,2940.000,0.500,904.000,1.000,479.000,5.000,0
"07/04/06","11:06:49","AMMA06",63236.000,"cc",28318.711,6.00,2831.871,1,6,0.100,34052.000,0.200,24900.000,0.300,2908.000,0.500,829.000,1.000,547.000,5.000,0
"07/04/06","11:06:55","AMMA06",62625.000,"cc",28392.611,6.00,2839.261,1,6,0.100,33647.000,0.200,24751.000,0.300,2895.000,0.500,811.000,1.000,520.000,5.000,1.000
"07/04/06","11:07:01","AMMA06",63060.000,"cc",28301.150,6.00,2830.115,1,6,0.100,34082.000,0.200,24698.000,0.300,2998.000,0.500,766.000,1.000,514.000,5.000,2.000
"07/04/06","11:07:07","AMMA06",63311.000,"cc",28330.565,6.00,2833.057,1,6,0.100,34365.000,0.200,24734.000,0.300,2898.000,0.500,802.000,1.000,511.000,5.000,1.000
"07/04/06","11:07:13","AMMA06",62272.000,"cc",28233.457,6.00,2823.346,1,6,0.100,33624.000,0.200,24556.000,0.300,2807.000,0.500,800.000,1.000,484.000,5.000,1.000
"07/04/06","11:07:19","AMMA06",62755.000,"cc",28292.393,6.00,2829.240,1,6,0.100,33955.000,0.200,24558.000,0.300,2892.000,0.500,797.000,1.000,552.000,5.000,1.000
"07/04/06","11:07:25","AMMA06",62693.000,"cc",28340.566,6.00,2834.057,1,6,0.100,33902.000,0.200,24523.000,0.300,2863.000,0.500,862.000,1.000,540.000,5.000,3.000
"07/04/06","11:07:31","AMMA06",63063.000,"cc",28298.846,6.00,2829.885,1,6,0.100,34296.000,0.200,24465.000,0.300,2942.000,0.500,803.000,1.000,556.000,5.000,1.000
"07/04/06","11:07:37","AMMA06",62687.000,"cc",28313.383,6.00,2831.338,1,6,0.100,33982.000,0.200,24473.000,0.300,2800.000,0.500,867.000,1.000,565.000,5.000,0
"07/04/06","11:07:43","AMMA06",62683.000,"cc",28309.027,6.00,2830.903,1,6,0.100,34067.000,0.200,24436.000,0.300,2823.000,0.500,833.000,1.000,524.000,5.000,0
"07/04/06","11:07:49","AMMA06",62855.000,"cc",28323.359,6.00,2832.336,1,6,0.100,34302.000,0.200,24505.000,0.300,2767.000,0.500,781.000,1.000,500.000,5.000,0
"07/04/06","11:07:55","AMMA06",62229.000,"cc",28370.000,6.00,2837.000,1,6,0.100,33630.000,0.200,24583.000,0.300,2765.000,0.500,770.000,1.000,480.000,5.000,1.000
"07/04/06","11:08:01","AMMA06",62841.000,"cc",28224.000,6.00,2822.400,1,6,0.100,34400.000,0.200,24307.000,0.300,2803.000,0.500,826.000,1.000,505.000,5.000,0
"07/04/06","11:08:07","AMMA06",62754.000,"cc",28384.059,6.00,2838.406,1,6,0.100,34183.000,0.200,24464.000,0.300,2775.000,0.500,792.000,1.000,539.000,5.000,1.000
"07/04/06","11:08:13","AMMA06",62519.000,"cc",28296.357,6.00,2829.636,1,6,0.100,34019.000,0.200,24475.000,0.300,2775.000,0.500,756.000,1.000,494.000,5.000,0
"07/04/06","11:08:19","AMMA06",62690.000,"cc",28346.035,6.00,2834.604,1,6,0.100,34321.000,0.200,24177.000,0.300,2881.000,0.500,823.000,1.000,487.000,5.000,1.000
"07/04/06","11:08:25","AMMA06",62678.000,"cc",28301.354,6.00,2830.136,1,6,0.100,34079.000,0.200,24412.000,0.300,2852.000,0.500,833.000,1.000,501.000,5.000,1.000
"07/04/06","11:08:31","AMMA06",62714.000,"cc",28260.037,6.00,2826.004,1,6,0.100,34459.000,0.200,24055.000,0.300,2879.000,0.500,788.000,1.000,533.000,5.000,0
"07/04/06","11:08:37","AMMA06",62675.000,"cc",28293.922,6.00,2829.392,1,6,0.100,34408.000,0.200,24166.000,0.300,2763.000,0.500,874.000,1.000,464.000,5.000,0
"07/04/06","11:08:43","AMMA06",63076.000,"cc",28316.012,6.00,2831.601,1,6,0.100,34404.000,0.200,24486.000,0.300,2810.000,0.500,871.000,1.000,503.000,5.000,2.000
"07/04/06","11:08:49","AMMA06",62849.000,"cc",28304.051,6.00,2830.405,1,6,0.100,34480.000,0.200,24308.000,0.300,2708.000,0.500,785.000,1.000,568.000,5.000,0
"07/04/06","11:08:55","AMMA06",62738.000,"cc",28350.693,6.00,2835.070,1,6,0.100,34257.000,0.200,24386.000,0.300,2745.000,0.500,819.000,1.000,531.000,5.000,0
"07/04/06","11:09:01","AMMA06",62896.000,"cc",28347.498,6.00,2834.750,1,6,0.100,34237.000,0.200,24490.000,0.300,2826.000,0.500,785.000,1.000,558.000,5.000,0
"07/04/06","11:09:07","AMMA06",62972.000,"cc",28261.684,6.00,2826.169,1,6,0.100,34331.000,0.200,24425.000,0.300,2862.000,0.500,833.000,1.000,520.000,5.000,1.000
"07/04/06","11:09:13","AMMA06",63090.000,"cc",28288.022,6.00,2828.802,1,6,0.100,34486.000,0.200,24571.000,0.300,2737.000,0.500,788.000,1.000,508.000,5.000,0
"07/04/06","11:09:19","AMMA06",63121.000,"cc",28362.496,6.00,2836.250,1,6,0.100,34385.000,0.200,24563.000,0.300,2805.000,0.500,795.000,1.000,571.000,5.000,2.000
"07/04/06","11:09:25","AMMA06",62846.000,"cc",28333.277,6.00,2833.328,1,6,0.100,34374.000,0.200,24260.000,0.300,2878.000,0.500,812.000,1.000,522.000,5.000,0
"07/04/06","11:09:31","AMMA06",63414.000,"cc",28308.522,6.00,2830.852,1,6,0.100,34528.000,0.200,24696.000,0.300,2818.000,0.500,794.000,1.000,578.000,5.000,0
"07/04/06","11:09:37","AMMA06",63274.000,"cc",28254.643,6.00,2825.464,1,6,0.100,34441.000,0.200,24683.000,0.300,2811.000,0.500,783.000,1.000,556.000,5.000,0
"07/04/06","11:09:43","AMMA06",63635.000,"cc",28310.238,6.00,2831.024,1,6,0.100,34785.000,0.200,24522.000,0.300,2980.000,0.500,839.000,1.000,509.000,5.000,0
"07/04/06","11:09:49","AMMA06",63291.000,"cc",28395.828,6.00,2839.583,1,6,0.100,34289.000,0.200,24740.000,0.300,2875.000,0.500,838.000,1.000,548.000,5.000,1.000
"07/04/06","11:09:55","AMMA06",62709.000,"cc",28295.484,6.00,2829.549,1,6,0.100,33842.000,0.200,24621.000,0.300,2909.000,0.500,781.000,1.000,553.000,5.000,3.000
"07/04/06","11:10:01","AMMA06",63533.000,"cc",28296.205,6.00,2829.621,1,6,0.100,34361.000,0.200,24855.000,0.300,2910.000,0.500,876.000,1.000,531.000,5.000,0
"07/04/06","11:10:07","AMMA06",63753.000,"cc",28327.139,6.00,2832.714,1,6,0.100,34238.000,0.200,25225.000,0.300,2919.000,0.500,838.000,1.000,533.000,5.000,0
"07/04/06","11:10:13","AMMA06",63541.000,"cc",28338.963,6.00,2833.897,1,6,0.100,34108.000,0.200,25200.000,0.300,2925.000,0.500,790.000,1.000,518.000,5.000,0
"07/04/06","11:10:19","AMMA06",63612.000,"cc",28360.525,6.00,2836.053,1,6,0.100,34160.000,0.200,25180.000,0.300,2909.000,0.500,759.000,1.000,603.000,5.000,1.000
"07/04/06","11:10:25","AMMA06",63828.000,"cc",28303.943,6.00,2830.395,1,6,0.100,34331.000,0.200,25119.000,0.300,2924.000,0.500,880.000,1.000,573.000,5.000,1.000
"07/04/06","11:10:31","AMMA06",63719.000,"cc",28283.660,6.00,2828.366,1,6,0.100,34099.000,0.200,25180.000,0.300,3061.000,0.500,805.000,1.000,574.000,5.000,0
"07/04/06","11:10:37","AMMA06",64064.000,"cc",28336.315,6.00,2833.632,1,6,0.100,34257.000,0.200,25445.000,0.300,2994.000,0.500,808.000,1.000,559.000,5.000,1.000
"07/04/06","11:10:43","AMMA06",63807.000,"cc",28319.008,6.00,2831.901,1,6,0.100,34076.000,0.200,25360.000,0.300,2996.000,0.500,847.000,1.000,528.000,5.000,0
"07/04/06","11:10:49","AMMA06",63686.000,"cc",28319.635,6.00,2831.964,1,6,0.100,33910.000,0.200,25423.000,0.300,2971.000,0.500,807.000,1.000,574.000,5.000,1.000
"07/04/06","11:10:55","AMMA06",63248.000,"cc",28311.322,6.00,2831.132,1,6,0.100,33531.000,0.200,25316.000,0.300,3015.000,0.500,822.000,1.000,564.000,5.000,0
"07/04/06","11:11:01","AMMA06",63677.000,"cc",28347.822,6.00,2834.783,1,6,0.100,33904.000,0.200,25382.000,0.300,2988.000,0.500,843.000,1.000,560.000,5.000,0
"07/04/06","11:11:07","AMMA06",63620.000,"cc",28319.811,6.00,2831.981,1,6,0.100,33935.000,0.200,25319.000,0.300,2950.000,0.500,857.000,1.000,559.000,5.000,0
"07/04/06","11:11:13","AMMA06",63687.000,"cc",28273.926,6.00,2827.393,1,6,0.100,34059.000,0.200,25293.000,0.300,2972.000,0.500,813.000,1.000,548.000,5.000,2.000
"07/04/06","11:11:19","AMMA06",64082.000,"cc",28255.652,6.00,2825.565,1,6,0.100,34541.000,0.200,25149.000,0.300,2989.000,0.500,832.000,1.000,571.000,5.000,0
"07/04/06","11:11:25","AMMA06",63471.000,"cc",28291.227,6.00,2829.123,1,6,0.100,33956.000,0.200,25294.000,0.300,2855.000,0.500,836.000,1.000,530.000,5.000,0
"07/04/06","11:11:31","AMMA06",63633.000,"cc",28369.092,6.00,2836.909,1,6,0.100,34033.000,0.200,25303.000,0.300,2886.000,0.500,823.000,1.000,588.000,5.000,0
"07/04/06","11:11:37","AMMA06",63246.000,"cc",28308.037,6.00,2830.804,1,6,0.100,34074.000,0.200,24812.000,0.300,2990.000,0.500,812.000,1.000,557.000,5.000,1.000
"07/04/06","11:11:43","AMMA06",63753.000,"cc",28283.367,6.00,2828.337,1,6,0.100,34187.000,0.200,25208.000,0.300,2946.000,0.500,885.000,1.000,525.000,5.000,2.000
"07/04/06","11:11:49","AMMA06",63552.000,"cc",28335.873,6.00,2833.587,1,6,0.100,34097.000,0.200,25035.000,0.300,2991.000,0.500,837.000,1.000,591.000,5.000,1.000
"07/04/06","11:11:55","AMMA06",63606.000,"cc",28368.455,6.00,2836.846,1,6,0.100,33990.000,0.200,25333.000,0.300,2906.000,0.500,834.000,1.000,543.000,5.000,0
"07/04/06","11:12:01","AMMA06",63622.000,"cc",28300.055,6.00,2830.006,1,6,0.100,33952.000,0.200,25279.000,0.300,2986.000,0.500,814.000,1.000,591.000,5.000,0
"07/04/06","11:12:07","AMMA06",63780.000,"cc",28275.668,6.00,2827.567,1,6,0.100,34025.000,0.200,25427.000,0.300,2928.000,0.500,852.000,1.000,548.000,5.000,0
"07/04/06","11:12:13","AMMA06",63789.000,"cc",28306.738,6.00,2830.674,1,6,0.100,33984.000,0.200,25467.000,0.300,2932.000,0.500,855.000,1.000,550.000,5.000,1.000
"07/04/06","11:12:19","AMMA06",63786.000,"cc",28309.434,6.00,2830.944,1,6,0.100,34196.000,0.200,25175.000,0.300,2998.000,0.500,879.000,1.000,537.000,5.000,1.000
"07/04/06","11:12:25","AMMA06",63923.000,"cc",28370.787,6.00,2837.079,1,6,0.100,34310.000,0.200,25256.000,0.300,2963.000,0.500,834.000,1.000,560.000,5.000,0
"07/04/06","11:12:31","AMMA06",63395.000,"cc",28329.859,6.00,2832.986,1,6,0.100,34029.000,0.200,25058.000,0.300,3011.000,0.500,774.000,1.000,523.000,5.000,0
"07/04/06","11:12:37","AMMA06",63956.000,"cc",28299.059,6.00,2829.906,1,6,0.100,34321.000,0.200,25361.000,0.300,2932.000,0.500,767.000,1.000,574.000,5.000,1.000
"07/04/06","11:12:43","AMMA06",63513.000,"cc",28344.315,6.00,2834.432,1,6,0.100,34201.000,0.200,25027.000,0.300,2950.000,0.500,779.000,1.000,555.000,5.000,1.000
"07/04/06","11:12:49","AMMA06",63940.000,"cc",28299.639,6.00,2829.964,1,6,0.100,34162.000,0.200,25399.000,0.300,2918.000,0.500,882.000,1.000,579.000,5.000,0
"07/04/06","11:12:55","AMMA06",63376.000,"cc",28355.240,6.00,2835.524,1,6,0.100,33652.000,0.200,25409.000,0.300,2953.000,0.500,808.000,1.000,554.000,5.000,0
"07/04/06","11:13:01","AMMA06",63349.000,"cc",28305.693,6.00,2830.570,1,6,0.100,33911.000,0.200,25085.000,0.300,2985.000,0.500,812.000,1.000,555.000,5.000,1.000
"07/04/06","11:13:07","AMMA06",63552.000,"cc",28254.492,6.00,2825.450,1,6,0.100,33676.000,0.200,25384.000,0.300,3026.000,0.500,879.000,1.000,586.000,5.000,1.000
"07/04/06","11:13:13","AMMA06",63842.000,"cc",28284.432,6.00,2828.443,1,6,0.100,34276.000,0.200,25168.000,0.300,3021.000,0.500,841.000,1.000,536.000,5.000,0
"07/04/06","11:13:19","AMMA06",63694.000,"cc",28371.084,6.00,2837.109,1,6,0.100,34113.000,0.200,25241.000,0.300,2922.000,0.500,846.000,1.000,572.000,5.000,0
"07/04/06","11:13:25","AMMA06",63871.000,"cc",28292.191,6.00,2829.219,1,6,0.100,34006.000,0.200,25463.000,0.300,2955.000,0.500,855.000,1.000,592.000,5.000,0
"07/04/06","11:13:31","AMMA06",64089.000,"cc",28337.354,6.00,2833.736,1,6,0.100,34148.000,0.200,25718.000,0.300,2871.000,0.500,817.000,1.000,535.000,5.000,0
"07/04/06","11:13:37","AMMA06",63875.000,"cc",28319.764,6.00,2831.977,1,6,0.100,33950.000,0.200,25566.000,0.300,2981.000,0.500,859.000,1.000,519.000,5.000,0
"07/04/06","11:13:43","AMMA06",64224.000,"cc",28255.729,6.00,2825.573,1,6,0.100,34282.000,0.200,25484.000,0.300,3004.000,0.500,846.000,1.000,608.000,5.000,0
"07/04/06","11:13:49","AMMA06",63834.000,"cc",28346.674,6.00,2834.668,1,6,0.100,34035.000,0.200,25530.000,0.300,2959.000,0.500,768.000,1.000,541.000,5.000,1.000
"07/04/06","11:13:55","AMMA06",64106.000,"cc",28310.731,6.00,2831.073,1,6,0.100,33964.000,0.200,25838.000,0.300,2974.000,0.500,809.000,1.000,518.000,5.000,3.000
"07/04/06","11:14:01","AMMA06",64039.000,"cc",28281.596,6.00,2828.160,1,6,0.100,34178.000,0.200,25419.000,0.300,3065.000,0.500,857.000,1.000,518.000,5.000,2.000
"07/04/06","11:14:07","AMMA06",64059.000,"cc",28365.307,6.00,2836.531,1,6,0.100,34047.000,0.200,25588.000,0.300,2988.000,0.500,877.000,1.000,559.000,5.000,0